Wind_Speed
8 8 9 10 9 10 10 10 10 10 10 10 11 12 13 13 14 16 16 10 7 11 9 7 8 6 5 5 5 5 3 2 5 6 5 3 2 2 3 10 9 12 20 23 23
9 9 10 11 11 11 11 12 12 12 13 12 12 13 14 16 17 20 6 4 6 7 10 9 9 8 5 5 4 4 3 8 6 6 5 4 6 11 4 11 14 18 24 26 25
10 11 12 13 13 14 14 14 14 14 15 15 15 16 17 17 18 2 1 5 4 7 10 10 8 8 5 5 7 6 6 6 7 16 12 7 6 7 4 7 27 22 21 18 22
12 14 14 15 16 16 16 17 17 16 16 16 16 16 18 15 6 1 5 11 11 9 12 11 9 5 4 5 7 3 14 11 5 8 5 5 7 5 13 33 34 36 33 33 31
14 14 15 16 17 17 17 18 18 18 18 18 17 17 18 9 18 21 19 15 10 9 13 14 13 8 5 5 3 4 5 13 20 17 22 21 26 11 27 43 39 35 32 29 26
13 13 14 15 16 17 18 19 20 20 19 19 18 17 18 12 14 10 9 9 8 10 14 15 9 12 4 5 6 2 8 16 14 19 18 9 26 4 25 30 30 29 33 32 28
11 12 13 14 15 16 18 20 21 21 20 19 18 17 21 31 20 19 21 20 17 15 16 16 17 9 4 3 5 5 7 9 7 11 8 8 9 11 30 23 29 32 24 25 29
7 8 10 11 13 15 17 19 20 20 19 18 17 16 16 21 22 22 23 27 22 15 15 14 13 12 9 6 2 3 1 4 4 6 3 10 12 17 30 19 18 25 40 41 38
5 6 8 11 12 14 15 17 18 17 17 14 13 11 10 15 14 15 20 20 15 14 12 7 9 5 4 3 4 2 5 7 9 11 4 7 9 10 17 21 30 38 48 50 48
6 7 9 11 12 14 15 16 14 12 9 6 7 4 12 11 9 8 9 10 8 8 7 7 5 3 3 3 7 8 5 5 6 6 7 7 15 15 34 36 38 40 40 47 42
8 10 11 11 13 16 16 14 7 4 4 8 13 14 20 11 11 10 7 9 8 7 5 3 4 8 15 14 2 3 5 6 8 8 4 22 19 15 24 27 35 41 38 30 39
12 12 13 14 12 14 13 8 8 9 12 19 25 27 31 27 9 12 9 8 8 6 7 3 7 15 2 4 7 7 10 14 8 10 4 12 20 20 21 24 31 37 34 29 32
15 13 11 11 13 11 10 11 14 15 5 11 15 14 12 15 9 14 12 7 5 6 8 9 5 5 7 5 8 5 6 10 10 6 6 7 8 4 7 10 25 29 24 25 21
15 14 12 12 10 6 7 11 12 16 2 6 3 2 2 4 2 5 12 4 2 8 6 6 4 6 4 6 8 9 10 11 6 4 4 5 9 5 8 10 2 14 16 10 10
15 15 14 11 7 6 7 7 10 8 6 3 1 1 2 2 1 3 6 4 3 4 4 7 5 4 4 8 7 10 1 2 2 3 3 3 4 6 3 6 7 4 4 5 8
17 15 13 12 8 5 5 4 8 2 7 4 1 0 0 1 0 3 2 3 1 2 2 7 2 4 7 4 6 3 3 5 4 2 5 10 8 1 4 4 1 11 13 10 11
10 9 8 4 2 1 4 1 2 4 2 3 3 2 1 3 2 3 3 3 4 1 4 1 4 3 3 1 2 2 4 4 4 1 8 3 3 5 5 5 5 6 18 12 19
10 11 9 7 5 5 5 1 8 6 7 2 2 1 3 4 2 2 1 4 6 3 2 3 17 8 6 7 7 7 8 5 6 6 12 2 9 7 8 4 15 11 7 14 35
15 18 20 15 14 11 7 7 5 6 6 1 6 6 3 2 4 3 6 5 5 10 8 5 10 1 5 4 7 4 6 5 2 3 2 8 12 14 5 5 10 21 28 26 26
17 15 19 14 12 16 5 14 6 5 3 0 4 5 7 3 2 3 4 3 4 7 1 3 7 7 3 2 4 7 3 1 1 3 9 6 5 13 6 9 14 15 20 27 29
13 5 6 12 15 15 8 7 6 18 12 4 3 6 9 8 7 6 5 3 5 4 8 3 5 7 3 6 8 1 4 4 3 4 5 7 8 4 8 12 8 6 13 22 25
8 2 6 14 9 5 11 5 7 11 12 4 2 5 11 11 12 11 14 14 4 2 3 6 5 7 13 7 3 3 7 8 5 7 5 6 8 14 13 11 12 13 17 20 22
9 3 10 21 6 9 5 5 9 5 9 4 6 5 1 5 9 8 6 5 9 4 3 2 4 5 5 3 3 3 3 6 5 2 11 11 5 11 10 13 15 13 15 17 22
6 1 4 15 14 2 3 10 10 7 9 14 7 7 7 11 11 9 8 5 3 3 4 4 4 13 15 13 4 7 6 4 4 7 11 9 8 11 5 12 10 9 10 12 19
5 4 4 3 5 10 14 6 2 3 5 4 2 4 3 5 4 5 4 4 4 4 3 5 10 9 12 13 4 8 10 16 16 16 11 15 20 22 1 3 8 8 12 13 14
5 3 4 2 5 1 8 5 12 11 6 15 11 11 6 11 9 14 6 5 8 3 3 2 4 1 4 11 14 17 17 18 17 17 14 17 21 7 4 2 7 12 11 15 19
7 6 2 2 2 3 4 3 2 1 1 8 6 4 4 1 3 5 6 10 7 4 2 3 3 8 20 7 4 7 14 14 13 18 12 16 3 1 2 4 7 12 9 12 20
Wind_Direction
328 329 330 331 330 329 326 324 324 322 321 322 324 324 325 324 319 311 303 278 255 231 224 212 203 196 187 188 178 159 75 212 244 169 248 262 276 229 237 268 245 246 257 276 281
312 314 315 315 315 316 315 314 312 312 311 312 314 315 317 320 317 311 296 281 240 235 225 223 210 196 184 187 186 148 144 220 214 198 222 254 249 279 243 264 264 262 277 278 276
302 304 305 305 306 306 304 304 304 304 304 306 308 311 313 321 322 243 129 16 354 238 219 218 215 199 203 195 197 181 206 213 242 239 253 257 262 254 212 264 272 268 295 289 279
293 296 297 298 299 299 299 299 297 296 296 297 299 303 305 310 297 210 272 307 302 243 219 213 201 194 200 209 207 216 241 235 250 251 260 252 271 228 237 265 287 293 292 288 285
290 291 293 295 297 298 298 296 294 292 291 290 291 292 296 281 266 282 280 278 267 242 227 220 205 203 197 205 206 228 249 253 260 264 268 278 270 252 258 282 292 293 292 290 288
290 293 297 299 301 304 304 301 296 295 294 290 288 285 282 253 277 276 271 265 253 242 230 223 222 229 264 222 190 263 268 277 282 272 260 227 272 215 270 286 294 294 296 295 291
295 300 304 306 307 306 306 302 299 297 294 291 287 280 273 266 271 270 270 270 262 256 240 235 227 197 177 259 249 276 303 310 233 266 227 205 284 233 273 285 286 290 294 304 301
309 316 318 318 318 318 316 310 304 298 292 287 280 272 262 278 273 263 261 260 257 247 241 240 231 230 239 248 281 250 149 297 268 173 233 171 258 272 293 281 276 287 292 293 289
321 326 329 331 332 332 330 325 318 307 297 288 272 243 261 268 276 270 259 255 262 242 225 216 191 199 193 132 11 308 241 219 307 225 141 184 251 265 296 300 288 286 289 291 289
315 320 327 330 333 334 336 330 319 311 309 301 260 251 252 271 278 274 259 232 222 195 162 175 171 122 38 115 236 229 226 247 250 284 170 217 250 278 284 288 282 283 280 283 285
301 313 319 324 336 343 346 351 351 326 323 283 274 259 280 286 280 275 247 189 171 165 166 158 125 204 219 207 264 285 242 253 260 258 310 286 279 278 276 269 274 279 279 281 293
283 293 313 317 325 341 354 27 360 309 298 285 272 255 253 256 257 255 232 181 173 178 120 59 218 227 120 167 227 250 271 272 277 269 183 270 284 282 265 270 259 268 281 291 300
266 273 294 300 310 324 352 355 342 333 264 282 255 262 260 253 231 243 211 202 168 158 193 200 218 182 193 195 248 212 231 264 257 326 253 309 276 231 274 255 270 265 281 291 308
270 274 281 291 305 329 345 347 347 340 340 278 275 284 248 202 253 219 195 210 195 218 189 232 271 194 167 214 190 265 234 254 275 353 261 23 295 208 257 268 341 295 300 331 37
267 274 280 286 284 323 327 340 351 352 303 254 250 259 184 202 148 41 197 208 240 189 134 249 179 181 176 221 150 230 179 243 168 199 345 323 291 258 214 276 260 242 129 44 47
275 280 282 285 294 297 302 311 332 14 244 316 143 42 86 202 21 123 139 163 150 187 255 242 302 206 221 221 198 115 81 48 49 67 280 206 193 285 187 207 301 352 356 360 23
269 274 277 272 225 277 294 184 34 202 313 260 227 151 200 218 210 171 147 179 190 254 254 305 225 278 192 193 34 90 70 322 325 15 236 342 254 236 247 267 17 306 322 339 22
272 270 261 261 245 223 233 137 227 176 220 339 283 166 217 175 202 99 85 277 228 156 174 203 287 184 175 204 193 187 171 201 223 263 275 92 258 266 230 277 342 11 332 14 17
268 270 265 262 252 214 193 232 241 170 194 214 334 302 270 256 208 171 209 240 242 184 220 203 265 240 212 167 166 164 189 209 266 53 317 252 273 295 191 73 18 16 33 44 28
267 262 266 258 228 206 209 241 239 186 129 127 245 231 260 224 178 205 199 182 278 202 114 350 305 212 288 80 253 184 153 154 334 230 240 260 248 245 14 46 42 37 23 21 18
260 236 220 201 188 189 222 231 264 246 259 240 228 264 286 303 254 256 225 287 233 211 181 149 196 266 358 200 202 142 244 230 287 173 231 251 244 220 63 85 92 57 34 20 14
187 186 174 172 186 195 231 196 215 281 268 293 280 255 263 277 274 273 270 254 249 114 267 210 202 227 264 258 241 235 232 187 220 219 217 246 248 280 95 70 81 50 34 24 19
165 210 174 183 210 221 242 256 249 255 238 214 247 224 335 294 290 253 269 337 327 233 218 287 215 294 267 264 51 214 258 251 276 225 244 264 265 360 29 48 50 57 41 30 23
163 116 213 212 232 235 228 265 255 267 251 229 237 261 280 271 260 275 282 283 217 172 283 341 256 246 256 269 323 261 221 260 238 261 274 253 288 298 2 345 20 23 22 13 357
169 204 186 218 262 240 235 265 230 278 253 56 314 237 251 280 273 238 291 346 308 283 264 210 258 250 262 267 299 285 289 276 272 273 266 282 286 278 255 352 330 329 337 345 355
169 160 174 245 264 241 198 237 252 267 251 274 242 290 299 268 261 295 297 262 267 312 307 280 270 226 254 278 281 277 271 270 274 275 266 262 262 78 121 271 299 321 320 340 341
192 175 148 247 173 149 218 211 105 47 100 78 68 335 321 303 46 291 283 273 268 294 262 245 281 270 271 284 306 262 247 260 259 262 261 260 270 191 252 264 292 309 292 316 332
Height
1556 1556 1556 1555 1555 1554 1554 1553 1553 1552 1551 1551 1550 1549 1548 1547 1546 1544 1542 1542 1541 1542 1543 1544 1545 1546 1547 1548 1549 1550 1559 1565 1555 1558 1544 1538 1538 1537 1536 1535 1533 1532 1529 1528 1526
1555 1554 1554 1554 1553 1553 1552 1552 1551 1551 1550 1549 1548 1547 1546 1545 1543 1540 1540 1538 1539 1541 1542 1543 1543 1545 1546 1547 1548 1549 1560 1553 1542 1540 1539 1536 1536 1534 1535 1532 1526 1526 1524 1524 1523
1553 1553 1553 1552 1551 1551 1550 1549 1549 1549 1548 1547 1547 1546 1544 1543 1542 1538 1538 1538 1539 1540 1541 1542 1543 1545 1546 1545 1545 1545 1548 1539 1536 1535 1535 1534 1531 1530 1530 1526 1517 1517 1519 1519 1518
1552 1552 1551 1550 1550 1549 1548 1547 1546 1546 1545 1544 1544 1543 1542 1542 1547 1537 1537 1537 1537 1538 1539 1541 1543 1544 1544 1544 1541 1544 1537 1536 1533 1533 1533 1531 1527 1526 1526 1512 1513 1511 1512 1511 1511
1550 1549 1549 1548 1547 1546 1546 1544 1544 1543 1542 1541 1541 1540 1539 1538 1536 1535 1534 1534 1534 1535 1536 1537 1539 1540 1541 1541 1541 1540 1535 1532 1530 1530 1528 1528 1520 1523 1513 1506 1507 1506 1504 1502 1503
1547 1546 1546 1545 1544 1544 1542 1541 1540 1539 1539 1538 1538 1537 1537 1533 1529 1530 1531 1531 1531 1531 1532 1534 1535 1536 1538 1538 1539 1535 1533 1529 1526 1525 1524 1524 1515 1518 1501 1505 1502 1502 1498 1497 1496
1545 1544 1544 1543 1542 1541 1539 1537 1536 1535 1535 1534 1534 1534 1532 1525 1527 1527 1528 1527 1527 1528 1529 1530 1531 1533 1534 1534 1533 1532 1532 1525 1520 1516 1517 1518 1518 1509 1496 1500 1498 1494 1493 1492 1491
1543 1542 1541 1540 1539 1538 1536 1534 1532 1530 1530 1530 1530 1530 1526 1521 1521 1521 1523 1523 1523 1525 1526 1528 1530 1532 1533 1531 1530 1531 1532 1533 1514 1513 1512 1514 1514 1494 1496 1495 1493 1490 1486 1487 1485
1541 1540 1539 1538 1537 1535 1534 1531 1528 1526 1525 1525 1526 1527 1522 1517 1516 1516 1517 1519 1521 1523 1524 1526 1529 1530 1531 1533 1538 1536 1536 1534 1523 1505 1509 1512 1508 1494 1493 1493 1488 1484 1479 1475 1471
1539 1539 1538 1536 1535 1533 1531 1528 1525 1522 1521 1522 1522 1528 1519 1516 1514 1513 1513 1515 1518 1521 1524 1526 1527 1530 1533 1535 1539 1531 1536 1532 1527 1506 1507 1508 1503 1495 1493 1489 1479 1473 1469 1463 1465
1536 1536 1535 1535 1534 1531 1530 1527 1527 1523 1520 1520 1520 1518 1515 1515 1514 1512 1511 1513 1516 1520 1524 1525 1530 1532 1520 1520 1520 1522 1524 1526 1517 1507 1509 1496 1491 1490 1485 1481 1470 1462 1457 1460 1457
1535 1534 1533 1533 1532 1531 1529 1529 1530 1530 1520 1515 1512 1509 1507 1508 1510 1509 1512 1514 1513 1516 1520 1527 1528 1516 1515 1518 1520 1522 1523 1519 1509 1502 1508 1498 1486 1480 1473 1464 1463 1455 1451 1456 1453
1531 1531 1531 1530 1530 1530 1527 1527 1527 1523 1520 1508 1503 1503 1504 1503 1503 1505 1509 1509 1510 1516 1517 1517 1511 1509 1514 1516 1519 1520 1521 1509 1512 1507 1501 1498 1482 1476 1461 1456 1452 1450 1454 1453 1453
1528 1529 1528 1529 1530 1528 1527 1526 1525 1521 1521 1509 1504 1502 1503 1502 1502 1502 1505 1509 1508 1510 1514 1514 1507 1508 1513 1512 1512 1516 1505 1507 1509 1511 1511 1499 1486 1473 1457 1452 1450 1450 1453 1454 1455
1524 1526 1526 1526 1527 1527 1528 1525 1524 1522 1533 1504 1503 1503 1502 1506 1504 1502 1503 1507 1508 1508 1510 1507 1506 1508 1509 1505 1504 1505 1499 1502 1504 1511 1510 1507 1510 1470 1458 1455 1451 1446 1448 1451 1452
1521 1523 1524 1524 1524 1527 1525 1524 1526 1528 1523 1504 1501 1502 1503 1502 1503 1502 1504 1506 1507 1508 1508 1504 1502 1503 1499 1497 1499 1496 1499 1507 1515 1514 1514 1491 1495 1471 1463 1451 1450 1444 1446 1446 1449
1518 1519 1522 1521 1522 1524 1525 1524 1531 1529 1509 1503 1500 1500 1500 1500 1501 1503 1504 1506 1506 1508 1509 1502 1500 1496 1496 1499 1501 1502 1506 1516 1516 1526 1499 1493 1495 1459 1449 1447 1448 1451 1451 1450 1453
1513 1518 1518 1521 1519 1520 1527 1526 1521 1505 1508 1502 1502 1501 1501 1500 1499 1503 1504 1506 1503 1502 1508 1504 1495 1493 1491 1491 1492 1501 1499 1506 1519 1508 1478 1503 1477 1450 1446 1447 1451 1449 1450 1453 1453
1509 1511 1514 1516 1518 1517 1523 1526 1502 1498 1499 1500 1501 1505 1505 1501 1501 1499 1505 1501 1497 1496 1499 1504 1491 1485 1485 1483 1483 1495 1497 1485 1494 1504 1505 1469 1457 1438 1442 1454 1452 1452 1453 1458 1456
1506 1503 1506 1511 1511 1516 1517 1509 1502 1493 1496 1496 1502 1502 1505 1503 1502 1501 1498 1493 1496 1494 1492 1491 1495 1481 1483 1483 1483 1482 1481 1490 1497 1495 1489 1470 1471 1445 1446 1457 1457 1462 1463 1458 1453
1501 1499 1499 1502 1508 1510 1507 1503 1498 1495 1497 1501 1496 1499 1500 1499 1498 1501 1499 1490 1491 1489 1490 1492 1502 1484 1482 1480 1479 1486 1483 1480 1478 1481 1477 1467 1459 1442 1451 1462 1466 1465 1466 1462 1458
1494 1498 1496 1500 1507 1501 1497 1493 1496 1494 1497 1498 1496 1495 1497 1499 1497 1497 1492 1491 1488 1487 1492 1486 1485 1483 1474 1471 1469 1468 1469 1467 1472 1473 1472 1459 1452 1443 1457 1460 1463 1462 1460 1462 1462
1491 1493 1495 1499 1496 1496 1493 1493 1489 1489 1493 1493 1495 1492 1493 1496 1500 1488 1487 1485 1486 1485 1486 1489 1479 1476 1476 1468 1468 1467 1466 1465 1468 1470 1457 1458 1448 1445 1453 1455 1457 1460 1460 1459 1460
1489 1493 1493 1495 1492 1490 1492 1491 1488 1484 1488 1488 1487 1490 1492 1492 1492 1488 1490 1485 1484 1480 1485 1487 1482 1472 1467 1460 1468 1471 1470 1470 1470 1458 1450 1447 1447 1448 1455 1456 1459 1460 1460 1458 1456
1486 1489 1490 1493 1489 1489 1495 1486 1486 1490 1486 1485 1484 1484 1489 1490 1490 1489 1488 1486 1482 1481 1482 1482 1475 1474 1468 1467 1475 1473 1474 1473 1471 1467 1464 1453 1454 1447 1454 1458 1458 1457 1457 1456 1451
1484 1487 1489 1490 1488 1490 1488 1483 1484 1484 1488 1483 1490 1489 1489 1487 1488 1487 1490 1488 1483 1484 1483 1481 1472 1476 1472 1467 1467 1466 1464 1457 1457 1455 1452 1450 1443 1453 1456 1459 1458 1456 1454 1452 1448
1482 1485 1486 1486 1484 1489 1486 1483 1485 1487 1487 1488 1492 1492 1491 1488 1489 1492 1489 1489 1489 1486 1483 1481 1477 1472 1462 1465 1470 1472 1455 1452 1449 1444 1444 1445 1454 1457 1458 1457 1454 1452 1452 1450 1446